Location: Olmeneta
(45.2333°N, 10.0167°E)
Time: 14:05:16
(UTC+00:00)

USA 234 - Pass Details

Date: 03 March 2021
Orbit: 1102 x 1105 km, 123.0° (Epoch: 14 April)

Event Time Altitude Azimuth Distance (km) Brightness Sun altitude
Exits shadow 19:39:57 32° 45° (NE) 1,786 4.1 -26.9°
Maximum altitude 19:43:13 76° 326° (NW) 1,136 3.3 -27.4°
Drops below altitude 10° 19:49:44 10° 242° (WSW) 2,957 6.0 -28.5°
Sets 19:52:13 0° 240° (WSW) 3,913 6.7 -28.9°
